Theta_e
354 353 352 352 353 354 354 354 354 354 352 351 351 351 351 352 352 353 355 354 354 354 353 353 353 352 352 353 353 354 354 356 357 357 357 358 359 358 357 358 358 358 359 359 358 358 359 359 359 359 359 359 359 358 357 357 356 355 355 354 353 353 352 351 353 353 352 352 355 356 356 354 353 354 355 356 355 354 353 352 351 350 350 349 349
355 354 354 354 354 353 353 354 354 354 354 353 352 351 351 351 350 351 353 354 354 355 354 353 354 353 353 353 353 354 355 356 356 356 357 358 359 359 359 359 359 359 360 360 359 359 359 358 358 357 358 358 359 358 356 355 354 354 354 355 355 353 352 351 351 352 353 352 353 353 353 353 352 352 354 355 356 356 355 354 353 353 352 351 351
357 356 356 355 355 354 353 353 354 355 355 354 354 353 352 352 351 350 351 352 352 353 354 353 352 353 353 354 354 355 355 356 356 356 357 358 358 359 360 360 359 359 360 360 359 360 359 358 357 356 356 356 357 356 356 354 353 353 353 354 355 354 353 352 351 352 353 353 352 352 351 351 352 351 352 353 355 356 355 354 354 354 353 353 352
357 358 357 357 356 356 355 354 354 354 354 354 354 354 354 353 351 350 350 351 352 353 352 351 351 352 353 354 355 356 356 356 357 357 357 357 357 358 359 359 359 359 359 359 358 358 358 358 358 356 355 355 357 357 356 354 353 353 354 354 354 355 355 354 353 353 353 352 352 351 351 351 352 351 352 352 353 353 353 353 353 353 353 353 352
357 357 358 358 356 354 354 355 356 355 354 354 354 354 354 352 349 348 349 349 351 351 352 351 350 351 351 353 355 355 355 356 357 358 357 356 356 356 358 359 358 358 358 357 356 355 356 356 356 356 355 355 355 356 356 355 353 353 356 357 357 357 356 354 353 353 352 351 351 351 351 352 353 352 352 352 352 350 350 350 351 351 352 353 353
355 356 356 356 354 352 351 352 355 355 355 354 354 354 353 351 349 348 349 349 349 349 349 350 350 351 352 353 354 354 355 355 356 357 356 355 355 356 357 357 357 356 356 355 354 354 354 355 356 356 356 355 354 354 354 353 351 353 358 358 357 357 355 355 354 353 352 352 351 352 353 354 353 353 352 352 353 352 351 351 350 350 351 351 352
352 354 354 354 353 352 351 351 352 354 355 355 354 353 352 351 350 349 349 349 349 348 348 348 349 351 352 353 354 354 354 354 355 355 355 355 355 355 355 355 355 354 353 353 353 354 355 355 356 356 355 355 354 353 353 352 350 353 357 356 354 355 355 355 354 354 353 352 352 353 354 354 354 353 352 353 353 353 353 352 352 351 351 351 351
351 352 352 352 351 352 351 351 350 350 352 353 353 352 352 352 352 352 351 350 350 349 348 348 348 349 351 353 353 354 355 355 356 356 355 355 354 354 355 355 354 352 351 351 353 354 355 355 356 356 356 356 354 352 353 353 351 351 353 353 353 353 353 354 354 354 354 353 353 355 355 355 356 355 355 354 354 354 354 353 353 353 352 352 352
350 350 351 351 350 351 351 351 352 353 354 354 354 353 353 353 353 353 353 352 351 351 350 348 348 347 347 349 352 353 354 355 356 356 356 355 355 355 355 355 355 353 352 352 353 355 357 357 357 357 356 355 354 353 354 354 353 352 353 354 355 355 354 355 355 355 354 354 354 355 356 356 356 356 356 356 355 355 355 354 354 354 354 354 354
348 348 349 348 348 351 354 354 356 358 358 356 355 355 355 354 355 354 353 353 353 353 352 351 349 348 347 348 352 354 354 355 356 355 355 355 355 355 357 357 357 357 356 354 353 355 357 358 357 355 355 355 355 355 356 356 355 355 355 356 356 357 356 356 356 355 354 353 354 355 356 356 357 357 356 356 356 355 354 354 353 353 354 354 354
351 350 351 350 350 354 358 360 361 360 359 357 356 356 355 355 355 353 354 354 354 354 354 353 350 348 348 348 351 354 355 354 354 354 354 355 356 357 358 358 358 357 357 356 354 355 357 358 356 353 352 352 352 353 354 354 355 354 354 355 356 356 355 354 354 355 353 354 354 354 355 355 356 356 355 355 355 354 353 353 352 352 353 354 354
352 351 352 351 351 353 355 357 360 360 359 359 357 356 356 355 354 354 355 356 355 355 354 353 351 349 348 347 348 350 351 351 352 353 353 352 353 356 356 356 357 357 357 356 355 354 354 352 352 351 350 351 352 352 352 352 351 351 351 353 354 354 353 352 352 352 353 353 353 352 352 353 353 353 353 353 352 352 352 352 352 352 352 352 353
350 350 350 347 347 351 352 352 352 353 355 358 358 357 356 357 356 356 357 357 356 355 353 352 352 351 349 348 347 348 348 349 350 351 349 347 348 352 354 355 357 356 355 355 353 351 348 345 348 350 349 350 350 350 350 350 349 349 350 349 349 350 351 350 350 350 350 350 349 347 347 348 347 348 348 349 350 349 350 350 350 350 351 352 352
350 350 350 345 345 349 352 352 351 351 352 355 356 357 357 356 355 355 356 355 355 354 353 353 353 352 350 348 347 347 347 347 348 349 349 348 349 351 353 354 355 353 353 352 350 349 346 344 346 348 346 347 347 345 344 342 340 339 338 339 343 347 348 347 347 347 345 344 342 342 342 343 343 344 345 346 348 348 348 348 348 348 349 350 349
348 348 348 347 346 348 350 350 351 351 352 352 353 354 353 352 351 351 353 354 354 353 352 352 351 349 347 345 344 345 345 345 347 348 348 349 349 350 351 351 352 351 351 350 348 348 346 344 343 340 335 335 334 329 325 324 322 320 322 331 340 343 342 341 341 341 340 340 340 340 342 343 343 344 344 346 347 348 347 347 348 349 349 348 348
346 346 347 347 347 348 348 348 349 349 350 350 350 350 350 349 349 350 352 353 353 352 350 349 347 345 343 341 342 343 344 345 347 348 348 348 348 349 351 351 352 351 349 347 346 345 343 341 337 330 322 318 316 313 312 312 312 312 319 330 337 337 336 338 338 339 339 339 339 340 340 341 341 342 343 344 344 345 346 347 347 347 347 347 347
345 345 346 347 347 348 348 348 347 347 347 347 348 349 349 349 349 350 351 351 350 349 346 344 342 340 338 338 339 341 342 343 345 346 347 348 349 350 351 350 350 348 346 344 342 341 340 336 331 324 318 315 313 312 312 313 315 320 328 334 335 335 337 339 339 338 338 338 338 338 337 338 338 339 339 339 339 340 342 343 343 343 344 345 345
346 346 346 347 347 347 346 346 346 345 345 345 346 347 347 347 347 348 348 348 346 344 343 341 338 337 337 337 336 336 336 338 341 343 345 347 348 349 348 347 345 343 342 340 339 338 334 330 326 325 323 320 317 317 319 322 326 331 335 336 336 337 338 338 337 337 336 336 335 335 335 335 334 334 334 334 334 334 335 335 336 338 340 340 340
346 346 346 345 345 345 345 345 344 343 344 344 344 345 344 343 343 344 344 343 342 340 340 338 336 335 335 334 334 333 332 332 335 338 341 343 345 344 343 342 342 341 339 336 332 328 324 325 329 330 327 324 324 327 330 332 334 336 336 336 337 337 337 338 337 335 334 333 331 330 329 329 329 328 328 327 327 328 329 330 331 334 335 334 332
345 344 344 343 343 343 343 343 343 342 342 342 342 342 342 341 341 341 340 340 339 337 336 335 333 331 330 330 330 330 328 326 328 330 333 334 337 339 339 338 337 336 333 328 325 322 323 328 332 332 328 327 329 332 335 336 336 336 337 337 337 335 335 336 335 333 330 329 327 327 327 327 327 327 325 323 323 323 324 324 325 326 327 327 325
343 343 343 342 342 342 341 341 341 340 340 341 340 340 340 340 340 339 338 337 336 332 329 327 325 322 321 321 322 322 321 321 323 325 326 327 328 331 333 331 330 327 322 320 323 327 330 332 332 332 331 330 331 333 335 336 336 336 337 337 336 334 333 333 332 330 329 327 327 328 328 328 329 328 327 325 323 322 322 322 322 321 321 321 321
343 342 342 342 342 341 341 340 340 339 340 340 339 339 339 339 338 337 335 332 328 324 321 321 322 322 322 321 320 320 319 320 321 322 322 322 322 323 324 323 322 321 319 320 326 331 332 332 332 333 332 332 332 334 335 335 334 335 337 337 335 333 332 331 331 330 330 329 329 329 328 327 327 328 329 328 326 324 323 322 322 322 321 321 321
340 340 340 341 341 340 339 339 338 338 338 337 336 335 334 333 332 330 328 325 322 321 323 325 327 327 327 325 323 322 321 321 321 320 319 319 319 320 321 320 321 322 324 327 330 332 332 333 333 333 333 333 334 334 333 333 332 333 334 335 334 332 331 330 330 330 330 330 330 327 324 322 322 323 325 327 327 326 325 324 323 323 323 322 323
339 338 338 338 339 338 338 337 336 335 335 334 334 333 332 330 328 325 322 322 325 327 328 327 327 327 326 324 323 322 321 322 323 324 323 323 324 326 326 326 327 329 330 331 332 332 332 333 333 333 333 333 333 332 332 331 331 331 332 332 332 332 330 329 329 328 327 327 326 323 321 319 320 320 320 322 322 323 324 325 325 325 323 323 323
338 339 339 338 338 338 338 337 337 336 335 335 335 334 333 333 332 330 328 327 327 328 328 326 324 324 323 322 322 322 323 324 326 326 327 327 328 329 329 329 330 330 331 332 333 332 331 331 332 332 332 331 330 329 329 328 329 328 328 328 328 328 328 328 327 325 323 322 321 320 320 320 319 319 319 319 319 319 320 322 323 324 323 322 322
332 336 337 337 337 337 336 336 336 336 335 335 336 336 335 335 333 332 331 331 330 329 327 324 321 320 321 322 322 323 324 326 327 327 327 327 328 328 329 329 330 330 331 333 332 330 329 328 328 328 327 326 326 325 324 324 325 324 324 324 324 324 323 324 323 322 321 320 320 320 320 320 320 320 320 319 319 319 319 318 319 320 320 320 320
326 329 331 331 331 332 332 332 332 331 330 330 331 332 332 331 328 327 329 331 331 329 326 323 320 318 320 321 322 323 324 326 326 326 326 327 327 328 329 329 329 330 330 329 329 328 327 326 326 325 325 324 324 323 323 322 322 322 323 322 322 322 322 321 321 321 321 320 320 319 319 319 320 320 319 319 318 319 319 319 318 318 319 320 319
319 322 325 326 327 327 326 325 325 324 325 326 326 326 326 325 323 324 325 327 329 327 325 323 320 317 316 319 321 322 323 324 325 325 326 326 326 327 327 327 328 329 329 327 326 326 326 325 325 324 324 324 323 322 322 321 321 322 321 321 321 320 320 321 321 320 320 319 318 317 317 317 317 317 317 317 316 316 318 319 318 317 318 319 318
318 318 319 319 317 316 316 316 315 317 320 323 322 322 323 322 322 321 319 319 321 323 324 323 320 315 314 317 319 321 322 323 323 324 324 325 325 325 325 325 326 327 327 327 326 325 324 324 323 322 322 323 322 321 321 320 319 319 319 318 318 317 317 317 318 318 318 317 316 314 314 313 313 313 313 313 313 313 314 315 314 314 315 315 314
319 319 318 316 314 312 311 311 312 312 314 316 317 318 319 319 318 317 315 313 314 316 317 317 315 313 313 315 318 320 322 323 323 323 324 324 324 325 324 324 324 325 325 325 324 323 323 321 321 321 320 320 319 319 318 317 317 316 315 314 314 313 312 314 315 315 315 314 313 311 311 310 310 309 309 309 309 310 310 310 310 310 310 310 310
320 320 320 319 318 316 314 312 313 313 313 313 314 314 315 315 315 314 314 313 313 313 313 312 312 312 312 314 317 320 321 322 322 322 323 323 323 323 323 323 323 323 323 324 323 322 321 320 319 318 317 315 315 314 315 315 315 315 314 313 312 310 311 312 314 313 311 311 310 309 309 309 308 308 308 307 307 307 307 307 307 307 306 307 308
324 323 323 322 321 321 320 319 318 316 315 315 315 315 315 315 315 314 314 315 314 313 312 312 313 313 313 313 316 318 320 321 321 321 322 322 322 322 322 323 323 322 322 322 321 320 319 319 317 316 314 312 312 312 312 313 314 314 314 313 311 310 310 311 312 311 309 309 309 308 308 307 307 307 306 306 306 306 305 305 305 305 305 305 307
327 326 325 325 325 325 326 325 324 321 320 319 318 318 317 317 317 316 316 316 315 314 313 312 312 313 313 314 316 319 320 321 321 321 321 321 321 321 321 321 322 321 321 320 319 318 317 317 315 314 312 312 312 312 311 312 313 314 314 312 311 311 311 310 310 309 308 308 307 307 306 306 306 305 305 305 305 304 304 304 304 304 305 305 305
327 328 327 327 327 327 327 327 327 326 325 324 324 323 321 320 319 319 318 317 317 316 315 314 313 312 313 313 316 319 321 322 321 321 322 321 321 320 320 319 319 318 318 318 317 316 315 314 313 313 312 311 311 311 311 311 311 312 313 312 311 312 311 310 308 308 307 306 306 305 305 305 304 304 304 304 304 303 303 303 303 304 304 305 305
327 328 329 328 328 328 327 327 328 327 326 326 326 325 324 322 321 321 321 321 320 318 317 315 314 313 312 313 314 317 320 321 320 320 322 323 322 320 319 318 317 316 315 315 315 314 313 312 312 312 311 311 310 309 309 309 310 310 311 311 310 309 309 308 307 306 305 305 304 303 303 303 302 302 302 302 302 302 302 302 302 303 303 304 305
326 327 328 328 328 328 328 327 326 325 324 324 325 325 326 325 324 323 323 323 322 320 317 317 317 315 314 312 312 314 316 318 318 320 321 322 322 321 319 318 317 315 314 314 314 313 313 312 312 311 311 310 310 309 308 308 309 309 309 309 308 307 307 306 305 305 304 304 303 302 302 301 301 300 300 300 300 300 301 301 301 301 302 303 304
325 325 326 326 327 327 327 325 322 320 321 322 322 323 325 326 326 326 324 323 323 321 319 318 317 317 316 314 313 313 314 314 316 319 320 320 320 320 318 318 317 315 314 314 314 313 313 312 311 310 310 309 309 308 308 308 308 308 308 308 307 307 306 305 304 304 304 303 302 301 301 300 300 299 298 298 299 300 300 299 299 300 301 302 303
321 321 321 322 323 324 324 324 322 320 321 322 322 322 323 324 325 327 327 325 324 323 322 320 318 318 318 316 314 315 316 316 317 319 320 319 318 318 318 317 317 316 314 314 314 313 312 311 310 309 309 309 308 308 307 307 307 307 307 307 306 305 305 304 304 303 303 302 301 300 300 299 299 299 298 297 298 298 299 298 298 299 300 301 302
319 319 319 318 318 319 320 321 321 320 321 322 322 322 321 322 323 324 326 326 325 325 325 323 320 320 319 317 316 316 317 317 319 320 320 319 318 317 317 316 316 315 314 313 313 312 311 310 309 309 309 308 308 307 307 306 306 306 306 305 305 304 303 303 302 302 301 300 300 299 299 298 298 298 297 297 296 297 298 298 298 299 299 300 301
319 319 318 318 318 317 318 319 319 320 321 322 322 321 321 321 321 321 322 323 323 324 325 324 323 322 320 318 317 317 318 319 320 321 321 320 318 317 316 316 315 314 314 312 312 311 310 309 309 309 308 308 307 307 306 306 306 305 305 304 304 303 302 302 301 301 300 300 299 299 298 297 297 297 297 296 296 296 297 297 298 298 299 299 300
320 319 319 318 318 317 317 317 318 320 321 321 321 321 320 320 319 319 321 322 322 322 323 324 323 323 321 319 318 319 320 321 320 319 320 320 318 316 316 315 314 313 313 311 311 310 309 309 308 308 307 307 307 306 306 306 305 305 304 304 303 303 302 301 301 300 300 299 299 298 297 297 296 296 296 296 296 296 296 297 298 298 298 299 300
319 320 320 318 317 317 318 319 319 320 320 320 320 320 319 319 318 318 319 321 322 323 324 325 324 323 321 320 320 319 319 319 318 318 319 319 317 315 315 314 313 312 311 310 310 309 309 308 308 307 307 307 307 306 306 306 305 305 304 303 303 302 302 301 300 300 299 298 298 297 296 296 296 295 295 295 296 296 296 297 298 298 298 299 299
317 318 318 317 316 317 318 319 318 318 317 317 317 317 318 318 318 317 318 320 322 323 323 323 323 321 319 318 318 317 317 317 318 318 317 316 315 314 313 312 311 311 310 309 309 309 308 308 307 307 307 307 306 306 306 306 305 304 303 302 302 301 300 300 299 299 298 297 296 296 295 295 295 295 295 295 296 296 296 297 297 298 298 299 299
316 316 316 316 317 317 316 316 317 316 314 314 314 315 316 317 317 317 318 321 321 321 320 319 319 318 317 316 316 316 316 316 317 316 315 314 313 312 311 311 311 310 309 309 308 308 308 307 306 306 306 305 305 305 305 304 303 303 302 301 300 299 299 298 298 297 296 295 295 295 295 294 294 294 294 295 295 295 296 297 297 298 299 299 299
315 315 316 317 317 316 315 315 315 315 313 314 315 315 316 316 315 315 317 318 319 319 318 318 317 317 316 316 315 315 315 315 314 314 314 313 312 311 310 310 310 309 308 308 307 307 307 307 306 305 305 304 304 304 303 302 302 301 300 300 299 298 297 297 296 295 295 295 294 294 294 293 293 294 294 295 295 296 297 297 297 298 299 299 299
315 314 315 317 317 316 315 315 315 314 313 313 314 315 315 314 314 314 315 316 317 318 318 317 316 315 315 315 315 314 314 313 313 312 312 311 311 310 310 309 309 309 308 308 308 307 307 306 306 305 304 304 303 302 302 301 301 300 299 298 298 297 296 295 295 295 294 294 294 294 293 293 293 294 295 295 296 296 297 297 298 298 299 299 299
315 314 316 317 316 316 315 315 314 314 313 312 313 313 314 314 313 314 314 315 315 316 316 315 314 315 314 314 314 313 313 312 312 311 311 311 310 310 309 309 309 308 308 307 307 307 306 305 305 304 304 303 302 302 301 300 300 299 298 298 297 296 295 295 294 294 293 293 293 293 293 293 294 295 295 296 296 296 297 297 298 298 299 299 299
313 313 315 316 314 314 314 313 313 313 313 312 312 313 313 314 314 314 314 314 314 314 314 313 313 313 313 313 313 313 312 312 312 311 311 310 310 309 309 309 308 308 307 307 306 305 305 304 304 303 303 302 302 301 300 299 299 298 298 297 296 296 295 295 294 293 293 293 293 293 293 293 294 295 296 296 296 296 297 297 298 298 299 299 299
313 311 313 313 312 313 313 313 313 313 312 312 312 312 312 313 313 313 313 314 313 313 313 312 312 312 312 312 312 312 311 311 311 310 310 309 309 309 308 308 307 307 306 305 305 304 304 304 303 302 302 301 300 300 299 299 298 298 297 296 296 295 295 295 294 294 293 293 293 293 293 294 294 295 296 296 296 297 297 297 298 298 298 298 299
312 311 311 311 311 312 312 311 311 312 311 311 311 311 311 311 311 311 312 313 313 312 312 312 312 312 311 311 311 311 310 310 309 309 308 308 308 307 307 307 306 306 305 305 304 304 303 303 302 301 301 300 300 299 298 298 298 297 297 296 296 295 295 295 295 294 293 293 293 293 294 294 294 295 296 296 297 297 297 297 298 298 298 298 298
310 310 311 310 310 311 311 311 311 311 311 311 311 311 310 310 310 310 311 311 311 311 311 311 311 310 310 310 309 309 308 308 308 308 308 307 307 307 307 306 306 305 305 304 304 303 302 301 301 300 300 300 299 298 298 298 297 297 297 296 296 295 295 295 295 295 294 293 293 293 294 294 295 296 297 297 297 297 297 298 298 298 298 298 298
Wind_Speed
30 30 29 29 28 26 25 25 24 23 22 21 21 21 21 21 21 20 20 19 19 19 18 18 18 19 19 19 19 19 19 19 19 19 18 17 15 15 15 15 15 14 12 12 12 13 14 14 14 13 12 12 13 12 10 9 10 11 10 9 7 7 8 9 8 10 16 16 15 16 15 15 16 14 13 13 12 12 12 12 12 12 13 13 13
29 29 28 27 27 26 26 26 25 24 23 22 22 22 22 22 21 21 22 21 21 20 20 18 18 20 21 21 21 20 19 20 19 19 19 19 17 16 16 16 16 15 14 13 12 13 15 15 15 14 12 11 11 10 10 9 9 9 9 8 9 9 9 11 10 10 13 15 15 16 15 13 14 14 14 15 15 15 15 16 15 14 13 13 14
26 26 26 25 26 26 26 26 26 26 25 24 24 23 22 22 22 23 23 22 21 20 20 18 18 20 21 22 22 21 20 20 20 20 20 20 19 18 18 18 18 17 17 15 13 14 14 14 14 13 12 11 12 12 13 13 12 10 10 11 11 10 9 10 11 12 14 15 15 14 14 12 13 13 13 15 15 16 17 17 17 16 15 14 15
24 24 24 22 21 22 25 27 27 28 28 27 26 24 21 19 19 20 21 23 24 22 21 19 18 20 22 22 22 21 20 19 20 20 20 20 20 20 20 20 19 18 18 16 15 14 15 15 15 14 13 13 14 14 14 13 12 11 12 12 11 9 8 8 10 13 15 15 14 14 14 14 14 13 12 13 14 15 16 16 15 16 16 16 17
23 26 26 24 20 18 21 27 30 30 28 28 27 24 21 16 14 13 12 16 21 22 22 21 20 20 23 24 23 21 20 20 20 21 20 19 19 19 20 19 18 18 17 16 15 15 16 16 15 13 14 14 13 13 13 12 11 11 11 10 9 8 8 8 9 12 14 16 16 16 15 15 15 15 14 14 15 15 15 14 15 16 16 17 16
20 25 26 25 24 22 19 21 27 31 30 28 26 24 20 16 13 11 8 8 10 13 15 19 21 22 24 25 24 23 22 20 21 21 20 19 19 18 18 18 18 18 17 16 15 16 16 16 15 14 14 14 14 13 13 13 12 11 9 9 9 9 10 10 11 12 13 15 16 16 16 16 17 18 17 16 16 16 16 17 17 16 16 16 16
20 22 24 23 24 26 22 16 18 25 28 27 25 22 19 15 13 11 10 8 7 7 7 9 15 20 24 26 25 24 23 22 22 21 20 19 18 17 17 18 17 16 15 14 14 14 15 15 14 13 12 12 13 13 13 13 12 11 10 10 11 12 12 13 13 13 14 14 15 16 17 17 18 19 18 16 16 16 16 18 20 19 17 17 18
19 22 24 24 23 25 26 20 16 18 21 21 20 18 15 12 11 10 10 10 10 9 8 6 8 12 17 23 25 24 22 21 21 20 20 19 18 17 16 15 14 12 12 12 11 12 13 13 12 10 10 11 12 11 11 11 11 12 11 10 11 11 13 14 14 15 15 15 16 17 18 19 19 19 18 17 16 16 16 16 19 21 20 20 22
21 22 23 24 24 22 21 21 20 18 17 16 15 14 11 10 10 9 9 9 9 9 9 8 7 7 8 13 20 23 21 20 20 19 18 17 16 15 13 12 12 13 14 13 12 11 12 12 11 10 11 11 11 10 9 8 9 10 10 9 9 10 12 12 12 13 14 15 17 19 19 19 19 18 18 17 17 17 17 17 18 20 21 23 24
20 21 22 23 22 20 18 18 18 16 14 12 11 9 8 8 8 8 8 8 8 8 8 7 7 7 7 8 13 17 19 19 20 19 17 15 14 13 11 10 12 13 13 13 13 12 12 11 10 9 10 9 9 8 7 7 7 8 9 9 9 10 11 10 11 12 13 14 16 17 17 17 18 17 17 18 17 17 17 16 17 19 20 22 22
14 13 15 17 17 15 16 15 14 12 10 9 8 6 4 5 6 7 7 7 7 6 6 6 6 8 9 10 12 14 16 18 18 18 17 15 13 12 11 11 12 11 10 12 13 13 12 11 9 8 7 7 7 8 8 9 9 9 9 9 9 10 10 9 10 12 13 13 14 15 15 16 18 17 17 18 18 17 18 18 18 18 17 15 15
6 2 2 5 6 6 5 7 8 7 6 6 5 4 4 6 6 6 6 5 5 4 5 7 8 10 11 12 13 14 15 16 16 16 15 11 9 9 10 12 12 11 11 11 11 11 10 9 8 7 5 4 7 9 9 10 10 9 8 7 7 8 8 9 9 10 11 12 13 14 15 17 17 16 16 18 17 17 18 19 18 17 16 14 13
12 8 3 3 6 4 3 3 3 2 2 3 3 4 5 6 6 6 5 4 3 3 5 9 10 11 12 13 13 13 13 13 13 13 13 12 12 12 12 12 10 9 8 8 8 8 9 10 8 6 4 4 6 7 8 8 8 7 7 7 6 5 5 6 6 6 7 9 10 12 13 14 15 15 16 16 17 17 17 18 18 17 17 16 16
14 11 6 4 6 7 5 4 3 3 4 4 4 5 5 5 5 5 4 4 4 4 7 10 11 12 13 12 12 12 11 11 10 9 9 10 11 11 11 10 7 5 6 7 7 5 5 5 5 4 4 5 6 7 7 7 7 6 6 5 5 5 4 4 5 6 7 8 9 10 11 12 13 15 15 14 15 15 15 16 17 17 18 18 18
11 7 5 5 3 2 2 2 4 4 4 3 4 5 5 5 5 5 5 5 6 7 10 12 12 12 12 11 11 10 9 8 7 7 7 8 9 10 10 9 7 6 5 4 4 4 3 2 3 5 6 7 7 7 7 7 7 7 7 7 7 7 7 7 7 6 6 7 8 9 10 11 12 14 14 13 12 13 14 15 15 15 17 17 18
10 8 6 5 5 3 2 2 3 3 3 3 3 2 3 4 5 5 6 8 8 9 11 11 11 11 10 8 8 8 7 7 7 7 7 7 8 9 9 9 8 6 4 3 4 4 3 4 6 7 6 6 7 7 6 6 6 7 9 10 10 10 10 10 8 7 7 7 8 9 10 10 11 12 12 11 11 11 12 13 12 13 15 14 14
13 11 8 6 7 7 6 5 5 5 6 6 7 6 6 7 8 8 9 11 11 10 9 9 8 8 6 6 6 7 7 7 7 8 8 8 8 9 10 9 7 6 6 7 7 6 5 5 6 7 7 7 8 8 7 7 7 9 12 13 13 14 13 11 10 10 9 9 9 10 10 10 10 10 10 11 11 10 9 9 10 12 13 10 10
17 16 12 8 8 9 9 10 10 10 9 9 10 10 11 11 11 10 11 10 10 9 8 9 9 7 7 7 7 7 8 9 8 8 9 8 9 10 10 9 10 11 12 10 8 7 8 8 9 10 10 9 8 8 8 8 9 12 13 13 15 16 15 13 12 11 10 10 11 12 12 12 11 11 11 11 12 12 11 10 9 10 10 9 10
19 20 18 15 14 13 13 14 14 13 12 12 12 12 12 13 13 12 12 12 12 11 11 11 12 11 11 10 9 9 12 13 11 10 9 8 7 8 8 10 13 14 13 10 8 8 9 9 10 11 11 10 10 11 12 12 13 13 13 14 15 16 14 13 12 11 11 13 14 15 15 15 15 15 14 14 15 16 16 15 13 11 9 10 12
18 19 19 18 17 16 15 15 15 14 14 13 13 13 13 14 15 15 16 16 16 15 15 15 16 15 14 14 13 13 13 15 15 14 13 10 9 8 9 12 14 13 11 10 9 8 9 9 10 11 10 11 13 14 14 14 14 14 14 14 15 14 13 12 12 11 13 15 16 17 17 18 18 19 19 19 19 19 19 19 18 16 14 13 15
17 18 19 19 18 17 16 16 16 16 16 16 16 15 14 14 14 15 16 17 18 19 19 19 19 17 16 16 16 15 14 15 15 14 13 13 11 11 11 13 13 12 11 11 10 10 10 10 10 10 10 11 14 15 15 15 14 14 14 14 15 14 13 13 13 13 15 16 16 17 18 17 18 19 20 21 21 20 21 21 21 21 20 18 17
19 20 21 20 19 18 17 17 18 18 17 17 18 17 16 16 16 17 18 19 20 21 21 20 20 20 18 17 16 16 15 15 14 13 12 12 12 12 12 12 11 10 11 11 11 11 10 11 11 10 10 12 14 14 15 14 14 15 14 13 13 14 14 14 14 15 16 17 17 18 18 18 18 18 17 17 18 17 17 18 18 19 20 19 18
20 21 21 21 20 19 19 19 19 19 19 19 20 21 20 20 19 19 20 21 21 21 20 19 19 19 18 17 15 14 14 14 14 13 12 12 12 12 12 13 12 12 12 12 12 12 12 13 14 14 13 13 14 14 14 15 15 16 14 13 12 13 14 15 16 16 16 16 17 18 19 19 19 19 18 17 15 15 14 14 13 15 15 16 16
18 19 21 21 20 19 19 20 20 21 21 21 22 21 21 20 19 19 19 19 20 19 18 17 17 17 16 16 15 14 13 13 13 14 13 13 13 13 13 14 14 14 14 14 15 16 18 19 18 17 16 16 16 16 16 16 16 16 15 14 13 13 14 15 16 16 16 16 17 18 19 19 19 20 20 18 16 14 14 13 11 11 13 13 13
15 16 18 18 18 17 17 18 17 18 18 19 19 18 17 16 15 14 14 15 16 16 16 16 16 16 16 15 15 15 14 14 15 16 16 15 14 14 14 14 15 15 16 18 20 21 21 20 19 18 18 18 18 19 19 18 17 17 17 17 17 17 17 16 16 17 17 18 17 17 18 18 19 19 20 20 19 18 18 16 13 11 11 12 12
18 17 17 16 16 16 16 17 16 15 15 14 14 14 13 13 13 13 12 13 14 14 15 15 16 16 16 15 15 15 15 16 16 16 16 15 14 14 14 14 15 17 19 22 22 21 20 20 20 20 20 20 21 22 22 21 19 19 19 20 21 22 21 20 20 19 19 18 18 18 17 17 18 18 19 20 21 20 19 19 18 15 13 12 12
20 20 19 18 18 17 18 19 18 17 16 16 15 15 14 14 14 15 15 15 16 15 14 13 14 15 14 14 14 15 15 16 16 17 16 16 15 15 15 15 16 18 22 24 23 22 22 22 22 22 22 22 22 22 22 21 20 20 20 20 21 21 20 20 20 19 19 18 18 18 18 17 17 18 19 20 20 19 17 17 18 18 16 15 15
19 20 19 19 19 18 18 18 17 17 17 18 18 18 17 15 15 16 16 16 16 15 14 13 13 13 13 13 13 15 16 16 17 18 17 18 18 17 17 17 16 18 21 23 23 23 23 23 23 23 23 23 23 22 21 20 20 19 19 19 19 19 18 18 18 18 18 17 17 18 18 19 19 19 19 20 21 20 18 16 17 17 16 16 17
19 18 18 18 18 17 16 16 16 16 17 18 19 18 17 15 15 15 14 13 12 11 11 11 11 11 12 12 13 15 17 17 18 18 18 18 18 17 18 18 19 20 22 22 21 22 22 22 22 22 22 22 22 21 20 19 19 18 18 18 18 19 18 18 17 17 16 16 17 19 19 20 20 20 20 20 21 20 19 18 18 18 17 17 18
17 16 17 17 17 16 16 16 16 16 17 18 19 19 17 15 14 13 13 12 11 10 10 10 10 9 11 13 13 14 15 16 17 17 17 17 16 16 17 17 18 20 20 20 20 21 22 22 22 21 21 22 21 20 19 18 18 18 18 19 20 19 19 17 16 15 16 16 17 18 19 19 20 20 21 21 20 20 19 20 20 20 20 20 19
17 16 15 15 15 15 16 16 16 16 16 17 17 18 17 15 13 13 12 12 12 11 10 11 10 10 11 13 14 14 14 15 16 16 17 16 15 15 15 14 15 16 15 14 18 21 21 21 22 21 21 21 20 19 18 16 16 17 17 19 19 19 18 17 15 15 16 16 16 17 18 18 18 19 20 20 20 20 20 21 21 22 22 20 17
17 15 14 14 14 14 15 14 14 14 14 14 14 14 15 15 14 13 11 11 11 11 10 11 11 10 10 12 13 14 14 14 15 15 15 15 14 14 13 12 12 11 9 11 17 19 18 19 20 20 19 19 18 18 17 16 15 14 16 17 17 17 17 16 14 14 15 16 16 17 17 17 17 18 18 19 19 20 20 21 22 21 21 19 18
15 14 13 12 12 12 12 12 11 11 11 10 10 10 11 13 13 13 11 10 9 9 9 10 10 10 10 11 12 13 14 14 13 13 13 13 12 12 13 12 10 8 7 11 17 18 16 17 18 17 17 16 15 14 14 14 13 12 13 14 14 14 13 11 11 12 13 14 14 15 16 17 17 17 17 18 19 19 20 21 21 21 20 20 20
11 12 12 11 10 10 10 9 8 8 7 7 6 6 6 8 10 11 12 11 9 9 9 9 9 9 10 10 10 11 12 12 11 9 9 10 9 9 10 11 9 8 8 12 15 15 15 16 16 15 14 13 12 12 12 12 11 10 10 11 11 10 9 9 10 11 12 13 14 15 16 16 17 18 18 19 19 20 20 21 22 22 22 21 21
8 9 9 9 9 8 8 8 7 6 6 6 5 4 6 7 8 9 10 10 10 10 10 9 9 9 9 9 9 9 10 10 10 9 9 10 9 7 8 10 10 10 11 12 12 13 14 14 14 12 12 11 12 12 13 13 12 11 10 9 10 9 8 9 11 12 12 14 15 16 17 17 18 19 19 19 20 21 21 21 22 22 21 21 21
7 8 7 7 8 8 9 9 8 7 7 7 5 4 5 8 9 10 10 9 10 11 11 10 9 8 8 8 8 8 8 8 9 10 10 12 11 7 6 9 11 12 12 12 12 13 13 12 11 11 10 11 11 12 12 12 12 12 10 9 9 9 9 10 11 11 12 14 15 16 17 18 19 20 20 20 20 20 20 20 21 21 21 21 20
9 9 9 9 9 10 10 9 8 5 5 5 4 3 3 5 8 11 13 13 11 11 11 10 9 8 8 8 7 7 7 7 8 7 7 9 10 7 5 8 9 11 12 12 12 13 12 11 10 10 10 10 11 10 10 10 10 10 9 8 8 8 8 9 10 11 12 13 15 16 17 19 21 22 22 21 19 19 19 20 20 20 21 20 20
8 7 8 8 8 8 8 7 6 4 3 3 3 5 9 9 7 6 9 12 13 12 12 12 11 9 9 8 8 8 8 8 8 6 5 6 9 9 8 8 8 9 11 12 12 13 12 11 10 10 10 10 10 10 9 9 9 8 8 7 7 7 7 7 9 10 12 12 14 15 17 19 21 23 23 22 20 18 19 19 19 20 20 19 19
8 7 6 6 5 5 6 6 4 4 5 6 7 10 12 13 12 10 8 9 10 11 11 12 12 10 9 8 8 8 9 9 7 4 3 5 9 10 9 10 10 10 12 12 12 13 13 12 10 10 9 9 8 8 8 8 9 8 7 7 7 8 8 9 10 11 12 13 14 15 16 18 19 20 21 21 19 18 18 19 18 18 19 19 19
9 8 7 5 4 3 4 4 4 4 6 9 10 11 12 12 12 12 12 11 10 9 9 11 12 10 8 8 7 6 6 6 3 1 2 4 8 10 10 11 12 12 12 12 13 13 13 12 10 9 8 8 8 8 8 8 8 8 8 8 9 9 10 10 11 12 13 14 15 16 16 17 18 18 19 18 16 16 17 17 17 17 18 18 18
9 8 7 5 4 3 4 3 3 5 8 10 10 10 10 9 8 9 10 12 11 10 10 10 10 10 9 8 6 3 2 2 2 3 3 6 10 12 11 11 12 11 12 13 14 13 13 12 10 9 8 7 7 7 7 7 8 8 8 8 9 9 10 11 11 12 13 14 15 16 17 18 19 18 18 17 15 15 15 15 15 17 18 18 18
8 8 7 4 4 7 9 9 8 10 11 11 10 9 8 6 6 7 9 11 11 11 10 9 9 8 7 6 4 3 3 2 3 3 6 10 13 13 12 12 12 12 12 13 14 13 13 12 10 8 6 5 4 4 6 7 8 8 8 8 9 10 10 11 12 13 13 14 15 16 17 19 19 18 17 16 15 15 14 13 13 16 18 19 20
7 8 7 5 5 9 12 12 11 11 11 9 8 7 5 5 6 8 12 14 14 13 13 13 12 10 9 8 7 8 8 7 8 10 13 14 14 14 14 14 13 11 11 12 12 11 10 9 8 6 5 4 3 3 5 6 6 7 8 9 9 10 11 12 13 14 15 16 16 16 17 17 17 16 15 15 15 14 13 12 14 16 18 19 20
7 6 5 4 6 9 11 10 10 11 9 8 8 8 9 9 11 13 15 16 17 17 17 16 14 13 13 12 11 11 12 12 14 15 15 15 15 15 15 14 12 11 11 11 10 9 7 7 6 6 5 4 3 3 3 3 4 6 7 9 10 11 12 13 14 14 15 15 15 15 15 16 16 15 15 14 13 12 12 15 17 18 18 19 20
6 5 4 5 7 9 10 10 11 11 9 9 11 13 13 14 15 17 17 17 17 18 18 17 16 15 15 14 14 14 14 15 16 16 16 16 16 16 15 13 12 11 10 9 8 6 4 4 4 4 4 4 4 4 4 4 5 7 8 9 10 11 12 13 13 13 14 14 14 14 14 15 16 15 13 12 13 13 15 17 18 18 17 19 19
5 3 4 7 10 12 12 11 10 9 9 11 14 14 14 14 15 16 17 18 18 18 18 17 16 16 16 16 16 16 16 16 17 17 17 16 16 14 13 11 10 9 7 5 3 1 0 0 1 1 2 2 3 3 4 4 6 7 9 10 11 12 12 12 13 13 13 13 13 13 13 13 13 13 12 13 14 16 17 18 18 18 18 19 19
3 4 8 12 14 14 13 10 9 8 8 11 13 14 13 14 14 15 17 18 18 19 19 18 17 17 17 17 16 16 16 16 16 15 14 13 12 11 10 8 7 6 4 2 1 1 1 1 2 2 2 2 2 3 3 4 6 7 9 10 11 12 12 13 13 13 12 11 12 13 12 10 10 12 13 14 16 17 18 19 20 20 20 20 19
4 6 10 14 15 13 12 11 9 8 8 11 15 16 16 15 15 15 16 17 18 19 19 18 17 17 17 16 16 15 15 14 13 12 11 11 10 9 7 5 4 4 3 2 1 1 2 2 3 3 2 2 3 3 3 4 6 7 8 10 11 12 13 14 13 12 11 11 11 11 9 8 9 12 13 15 16 18 19 20 21 20 20 19 19
6 8 10 13 14 13 12 12 11 9 11 14 16 17 17 17 16 15 16 16 17 17 17 17 17 16 15 15 14 14 13 12 11 10 10 9 7 6 4 4 3 3 2 1 1 2 3 3 4 3 3 3 2 2 3 4 5 6 7 9 10 11 13 14 14 12 10 10 10 10 8 8 9 12 14 15 17 18 19 20 20 19 18 18 18
6 8 9 11 12 11 11 12 11 9 11 14 15 15 16 17 17 16 17 17 17 17 16 16 16 15 14 14 14 12 11 10 9 9 9 7 5 4 4 5 4 3 2 2 3 3 4 4 3 3 2 2 2 2 3 4 5 5 6 8 9 11 13 14 14 12 10 9 9 10 10 10 10 12 14 15 17 18 19 18 17 17 18 18 17
7 7 7 8 9 9 11 12 11 10 12 14 15 15 16 16 17 17 18 18 17 17 16 15 14 13 13 13 12 11 10 10 10 10 10 9 8 8 8 7 6 5 4 4 4 3 3 3 2 2 2 2 2 2 3 5 5 5 5 7 8 10 12 13 14 13 11 9 9 10 11 11 11 12 14 16 16 17 18 17 16 17 18 19 18
Wind_Direction
201 204 207 208 210 214 216 217 218 219 221 223 224 225 226 227 228 230 234 236 236 237 236 236 239 235 227 227 230 233 235 238 240 242 244 245 245 246 248 250 254 259 267 273 273 270 267 267 270 275 286 290 286 284 283 282 285 287 284 284 287 278 261 250 243 263 280 284 283 288 293 300 302 297 294 296 298 301 305 312 319 317 311 308 308
199 203 206 208 211 214 218 219 220 220 220 222 224 225 229 232 232 231 233 234 236 238 235 236 242 238 230 231 234 235 237 241 242 242 244 246 247 249 251 251 252 254 260 268 269 266 264 263 264 267 278 285 278 272 272 275 283 286 280 276 285 284 267 257 250 252 272 281 282 285 291 296 297 293 291 292 295 298 298 302 308 312 313 315 314
198 202 205 211 213 215 220 222 222 222 221 222 225 227 231 238 240 238 238 238 236 236 234 235 238 237 234 234 234 234 238 241 244 245 246 247 248 250 251 251 252 252 256 261 262 265 266 263 262 264 269 272 269 269 277 281 280 278 276 274 278 280 268 261 260 257 265 276 282 286 291 295 299 299 295 292 293 296 297 299 303 307 311 313 311
195 200 202 208 215 220 223 224 224 225 222 222 225 228 233 240 241 238 239 240 236 231 231 231 230 231 234 235 233 233 236 239 242 244 244 245 247 249 250 251 251 253 257 261 261 265 267 266 266 267 268 272 275 277 279 282 279 275 276 272 265 268 269 267 268 266 267 275 281 288 294 299 303 306 304 299 296 296 297 300 303 306 308 307 305
197 201 202 201 209 226 237 232 226 224 223 222 223 227 233 237 232 226 228 232 232 230 230 229 227 228 231 233 233 234 237 238 239 241 243 245 247 249 249 249 251 255 260 263 262 260 262 266 269 271 274 278 280 281 281 281 278 275 274 266 256 262 272 272 272 270 270 274 282 291 299 304 307 309 311 310 306 302 299 300 304 306 306 305 304
204 204 204 201 200 210 234 243 232 225 223 223 223 224 229 230 225 220 213 207 214 223 228 229 231 232 231 231 233 235 237 237 237 239 243 246 245 246 247 249 253 257 259 261 259 257 258 264 269 272 274 276 279 284 286 283 277 272 270 268 271 279 281 278 276 273 272 275 281 290 297 304 307 308 311 314 310 307 305 304 306 307 306 306 308
200 200 200 200 197 198 207 226 235 227 220 219 220 220 223 225 226 228 228 222 218 221 226 228 232 234 233 231 233 235 237 236 236 239 241 242 243 243 245 249 254 259 262 263 260 256 257 263 269 271 272 277 284 291 291 285 277 268 265 276 289 291 285 284 284 279 275 276 280 287 294 301 303 304 310 313 309 307 307 306 307 309 307 305 307
197 198 200 202 203 203 202 205 222 228 217 211 212 215 218 221 225 231 235 238 239 242 247 243 235 235 234 232 234 236 236 234 233 235 238 239 239 240 241 244 247 251 254 255 254 254 259 266 270 272 276 280 283 285 286 282 275 267 267 279 291 290 283 285 289 285 280 280 284 289 294 297 300 303 309 311 308 307 309 304 301 303 305 304 306
202 203 207 209 210 212 207 202 206 213 209 204 205 209 213 216 224 233 240 245 247 249 253 255 250 243 235 233 234 234 232 228 225 225 227 229 231 234 235 235 239 245 247 245 244 245 253 262 268 276 283 283 281 282 281 277 275 277 282 289 294 290 284 287 292 290 286 286 289 293 294 294 297 302 305 307 306 304 307 304 298 298 303 304 305
204 205 213 216 210 206 203 198 197 197 192 189 193 199 209 221 231 239 244 250 254 251 247 245 241 233 223 220 222 222 220 219 219 217 217 219 224 228 226 225 232 242 250 251 247 243 247 257 267 278 284 282 280 278 273 271 271 274 282 291 294 289 286 289 295 293 287 283 286 290 290 288 293 299 301 302 304 302 302 303 301 303 308 308 307
209 212 221 220 208 196 193 189 184 183 178 176 179 181 203 236 248 252 250 248 247 243 235 224 210 204 204 201 201 202 204 207 213 216 214 214 218 217 213 220 230 236 248 254 248 240 241 250 262 273 278 278 275 268 268 276 278 277 281 285 288 288 287 289 291 289 286 285 289 294 293 289 294 300 302 301 300 300 301 303 303 304 307 306 305
182 189 251 215 181 153 145 142 143 149 154 159 164 175 212 236 242 242 240 235 235 229 212 203 197 197 201 200 197 197 199 203 208 211 210 215 230 231 222 223 231 236 242 249 245 241 249 264 276 280 276 277 277 274 280 289 292 294 296 295 297 300 298 297 298 299 297 297 300 301 301 300 302 307 309 306 303 303 305 305 302 301 300 296 295
145 132 122 191 188 169 115 85 86 98 149 166 157 168 199 211 211 213 215 217 225 208 193 196 199 201 203 203 203 203 201 203 207 207 211 224 237 239 230 225 230 234 232 235 242 262 289 302 301 292 278 277 286 293 303 311 313 313 310 312 327 340 326 312 320 331 326 318 316 315 316 318 319 319 318 316 313 311 307 304 302 298 293 290 291
156 156 153 165 196 205 201 185 179 190 203 197 165 156 177 196 206 208 203 200 197 187 193 199 199 198 199 199 201 202 199 198 201 200 200 202 201 199 201 206 210 209 209 219 231 252 294 313 318 336 343 334 332 336 340 342 348 352 351 357 20 40 35 358 344 344 340 337 336 334 331 328 322 318 316 314 312 309 304 300 299 294 290 291 292
141 144 132 119 141 201 214 157 151 161 175 182 182 191 205 221 228 219 201 194 191 183 185 189 188 186 187 186 184 183 181 181 182 181 178 175 173 174 179 184 182 181 194 211 216 208 189 149 94 47 22 2 353 353 355 1 9 18 33 52 60 55 43 31 20 5 350 342 340 337 335 331 322 316 314 309 305 304 301 300 297 292 295 298 297
116 106 95 94 97 91 76 86 107 117 117 127 146 185 210 203 200 196 186 176 169 165 168 174 176 175 172 171 168 165 162 163 168 174 175 178 183 179 175 174 174 172 162 128 128 144 141 120 94 67 42 18 8 9 15 17 22 38 54 63 64 57 51 48 44 37 24 9 0 355 351 347 340 333 330 326 321 315 308 306 305 306 306 303 303
99 96 86 72 72 77 81 86 96 103 105 109 113 120 141 157 162 166 167 161 153 148 148 149 152 152 142 132 137 142 142 144 156 164 164 171 179 174 168 166 161 148 126 111 107 99 79 56 44 40 34 24 19 22 26 26 40 60 66 65 60 53 52 56 54 48 41 33 30 27 21 16 11 6 5 2 357 351 343 338 335 331 326 320 318
98 102 104 102 96 97 105 110 110 110 110 112 118 125 135 143 150 159 163 154 139 130 126 121 115 108 99 96 105 111 106 107 123 135 138 150 158 154 148 136 119 112 113 111 105 91 72 49 35 33 32 31 34 40 45 50 61 68 67 63 56 48 47 52 53 53 53 52 52 48 41 37 33 31 32 30 26 27 26 19 5 350 344 344 338
105 110 116 120 116 114 116 116 114 113 112 112 115 120 125 128 130 134 135 128 118 115 116 113 106 100 97 95 93 88 83 84 90 99 108 120 130 131 130 121 114 115 118 113 100 89 80 66 52 45 41 47 60 67 67 67 67 65 62 61 56 50 50 52 48 50 58 59 57 56 52 50 47 45 45 43 41 41 39 34 31 26 20 17 16
113 116 119 119 116 114 113 112 111 111 109 107 108 110 113 115 116 117 116 115 115 112 108 105 101 97 95 92 88 81 75 74 75 79 86 92 103 117 126 123 122 124 122 111 97 90 87 77 62 53 55 68 76 75 72 68 64 59 57 58 57 53 56 57 53 57 64 63 60 60 59 58 55 52 49 47 46 46 45 43 43 45 46 44 46
121 120 119 117 114 112 110 107 106 106 106 106 107 109 110 111 113 115 115 114 111 106 100 98 96 93 89 87 84 78 74 73 74 78 82 87 96 110 116 116 119 121 116 108 100 91 83 72 60 58 70 79 78 76 73 69 63 58 57 60 64 61 59 61 62 65 67 65 62 60 57 54 52 50 48 46 46 46 47 48 49 51 52 51 51
120 119 119 118 117 114 112 109 107 107 109 109 109 111 112 114 114 114 113 110 105 101 98 96 94 90 85 83 83 83 81 80 80 80 82 87 92 97 100 101 105 108 106 99 88 76 68 67 68 71 77 79 78 79 77 71 66 63 64 70 73 68 65 66 67 66 65 62 58 52 47 44 42 41 41 42 41 40 40 42 46 50 52 51 51
114 113 114 114 114 112 111 109 108 107 108 109 110 111 111 112 112 111 109 107 104 101 98 94 91 86 79 74 74 77 80 81 80 78 79 84 88 91 92 93 94 96 94 85 75 73 77 82 83 82 79 82 87 87 80 73 70 69 70 74 74 72 72 72 69 66 62 58 53 47 43 42 42 40 38 37 36 36 34 33 35 41 46 47 48
112 109 108 107 106 105 105 105 103 104 104 104 107 110 111 111 110 109 108 108 107 105 100 94 89 83 75 69 66 68 73 76 75 73 74 79 84 86 87 90 92 90 84 80 83 89 93 93 92 90 88 88 89 85 77 71 69 67 67 68 68 69 73 74 70 66 60 56 54 50 46 44 44 44 41 37 35 36 36 34 35 40 44 45 45
120 116 112 108 107 106 105 105 104 105 106 104 105 108 111 111 110 111 114 114 112 110 105 98 91 85 80 74 71 72 76 78 78 77 77 78 80 81 83 86 87 85 86 90 95 97 96 95 95 92 88 84 80 76 72 68 67 65 64 66 65 63 64 66 65 62 58 56 55 53 48 46 45 44 41 39 37 35 33 34 36 39 41 44 47
117 121 121 118 118 116 113 112 112 112 112 112 113 114 115 114 112 113 118 122 119 114 109 101 92 88 86 84 82 83 85 86 84 82 81 81 82 82 84 86 89 92 97 101 103 100 96 95 93 88 82 78 75 74 72 70 69 68 67 67 66 62 60 59 59 58 55 51 49 46 43 42 41 41 40 37 34 31 28 27 28 28 27 29 36
110 114 116 117 118 118 116 115 113 110 109 111 114 117 118 117 112 106 109 120 125 123 117 106 96 93 93 92 91 90 89 89 85 81 78 79 81 85 88 90 95 102 105 105 103 100 97 93 89 85 82 80 78 77 74 71 68 67 67 66 65 62 60 59 58 56 53 49 46 43 41 39 38 38 38 37 33 30 28 27 26 25 24 24 28
106 106 109 111 111 111 111 111 109 107 107 107 107 108 110 111 107 98 97 107 119 125 124 112 100 98 99 99 98 94 89 86 82 78 75 76 80 87 91 92 97 105 108 108 106 104 102 98 93 89 87 84 80 76 73 69 67 65 64 62 60 57 55 55 55 53 51 49 45 40 36 35 33 32 33 34 33 30 30 31 30 28 29 32 31
106 104 104 104 102 102 102 103 104 106 108 107 104 101 100 101 100 95 90 92 102 116 120 111 102 102 103 103 101 96 91 86 81 77 75 76 80 87 92 95 99 105 111 115 113 107 102 95 89 86 85 82 78 74 70 66 62 58 54 51 47 44 42 43 45 45 42 39 37 34 31 29 28 27 27 28 27 25 25 28 28 26 28 30 26
115 110 106 101 97 97 97 100 103 105 109 109 107 104 102 100 98 95 92 91 94 103 109 106 105 108 109 107 103 98 95 92 87 84 82 81 82 88 94 99 103 107 114 118 112 103 95 88 84 82 81 77 73 69 65 60 54 50 46 42 39 38 38 40 42 41 38 37 36 35 33 30 28 27 26 25 23 21 19 19 19 18 19 19 14
124 119 113 106 101 100 102 104 105 105 106 108 109 111 111 108 104 101 100 101 102 102 101 100 101 105 109 110 108 106 104 102 97 93 90 89 89 92 98 105 107 110 117 117 105 97 93 90 87 84 81 75 69 65 62 58 54 50 45 42 42 42 43 45 44 41 38 39 39 35 34 34 33 32 30 27 24 22 19 15 14 13 13 13 9
124 124 120 115 112 110 109 110 110 110 111 111 112 115 117 117 115 112 109 109 108 105 104 104 104 105 105 108 111 113 113 110 106 102 98 96 97 98 100 101 101 101 105 104 98 95 95 93 92 88 83 77 71 67 63 58 55 49 44 44 46 47 48 48 46 40 38 39 39 36 35 35 35 33 30 26 22 20 17 14 12 11 9 8 5
127 130 127 124 124 123 120 121 122 121 121 121 122 124 125 126 128 129 127 123 118 118 118 116 114 113 112 114 118 120 120 117 112 109 107 105 104 104 101 96 90 81 81 93 98 98 97 96 94 91 85 78 72 69 65 59 54 50 46 46 48 47 45 43 40 38 38 37 36 34 31 29 27 26 24 20 17 15 12 10 8 6 3 359 357
130 137 139 139 141 139 136 136 137 135 135 137 143 150 149 144 142 143 143 142 143 144 140 133 130 127 124 124 127 130 130 124 115 114 123 125 121 115 108 98 89 81 80 92 101 103 101 100 98 93 86 80 74 69 65 59 54 51 47 48 50 47 43 40 40 42 41 37 36 35 30 25 23 21 18 15 12 10 8 6 4 2 359 354 350
124 132 144 153 156 158 160 158 155 158 165 169 175 190 193 189 182 171 162 159 162 162 158 151 147 142 137 136 137 140 142 133 114 108 128 145 146 132 115 106 99 94 94 98 104 107 104 104 102 96 88 84 78 71 68 66 63 60 59 63 63 56 49 46 44 41 38 34 34 32 28 25 23 20 16 13 11 8 6 3 1 359 358 354 350
124 125 136 148 156 165 172 170 162 160 167 171 177 201 215 217 217 209 198 189 181 172 169 169 165 154 148 147 146 147 151 144 122 108 120 145 158 155 126 112 107 106 108 109 110 111 110 107 105 100 94 92 88 80 75 76 74 72 73 74 69 58 49 45 40 35 31 30 29 27 25 23 21 17 12 10 9 6 2 357 355 354 354 353 352
125 125 127 131 140 149 155 156 151 142 146 159 161 151 163 199 222 226 221 215 204 189 182 183 179 169 164 162 158 155 156 152 136 115 115 145 165 169 141 123 117 115 118 121 121 121 120 114 108 106 103 102 99 92 86 81 74 70 70 66 59 52 44 38 31 25 23 24 24 22 20 17 13 10 6 3 2 1 358 354 351 349 350 352 354
131 130 132 132 138 147 152 154 147 118 106 137 134 110 114 127 151 193 213 216 212 206 200 195 188 181 177 173 165 160 157 151 138 111 96 140 163 161 142 134 134 129 126 129 132 132 129 123 114 109 106 103 98 93 87 78 68 62 60 57 57 56 46 33 24 19 17 18 17 14 10 7 4 2 0 358 355 353 352 352 350 347 348 351 353
143 132 131 133 145 163 173 174 162 118 100 112 118 114 111 110 111 119 143 178 198 208 211 206 199 191 184 178 173 170 166 159 142 108 92 141 158 159 150 145 147 145 137 136 138 137 133 128 121 112 105 98 91 85 81 75 68 60 54 52 55 53 42 32 25 20 17 16 13 9 6 4 2 360 359 357 353 347 345 347 348 347 345 345 347
148 134 128 122 127 161 179 183 179 152 126 120 119 117 113 106 104 114 129 145 162 179 193 197 194 189 183 182 183 179 172 168 169 268 260 189 170 165 159 148 144 143 140 138 138 137 133 130 125 117 108 98 89 83 79 74 68 60 50 45 44 41 34 27 20 15 11 8 5 3 2 1 359 358 357 356 351 344 342 343 343 344 343 343 343
147 147 141 117 95 115 149 161 161 151 141 134 127 122 120 115 110 117 132 144 156 170 181 185 182 178 179 186 187 165 144 199 252 280 251 190 169 163 159 151 144 141 140 139 141 141 138 134 129 122 112 99 85 75 63 53 47 43 38 33 27 23 18 11 6 3 1 357 355 354 354 354 354 353 351 351 349 345 343 341 341 343 343 342 343
142 149 153 135 101 108 119 124 130 133 135 135 132 126 124 122 113 111 124 139 155 166 166 157 146 143 150 169 171 136 119 162 205 183 157 153 150 147 144 142 139 136 135 138 143 145 142 138 133 128 119 103 78 50 29 18 14 15 18 17 13 8 2 358 355 353 351 350 350 349 350 350 349 348 347 348 349 348 345 342 341 341 340 340 342
154 153 157 158 139 130 126 123 124 123 119 118 121 118 111 111 112 117 126 136 143 144 138 130 125 122 120 126 135 131 121 120 129 133 133 133 131 131 132 134 133 132 131 134 138 142 141 138 135 132 125 110 74 28 7 2 360 1 6 9 7 3 358 354 351 349 347 347 348 348 348 349 348 347 349 350 351 350 348 342 338 337 336 338 341
176 173 180 186 169 157 150 143 137 128 112 96 101 111 114 117 119 120 127 134 137 133 129 130 131 130 125 124 127 126 120 120 126 130 131 130 128 129 132 134 134 132 129 125 125 127 126 122 121 120 111 95 70 34 18 13 6 3 5 5 3 359 356 353 350 348 347 346 345 346 348 350 350 349 351 353 352 349 345 339 336 335 335 336 337
184 182 200 208 192 172 157 146 142 138 117 98 106 118 123 122 119 117 122 132 136 134 132 132 134 133 129 126 125 123 123 127 131 133 135 135 134 134 135 135 130 124 119 115 114 114 103 94 97 93 78 66 54 36 25 18 9 3 2 1 358 356 355 354 352 349 347 344 343 344 347 350 353 353 354 354 349 344 340 337 336 335 333 334 334
180 169 178 185 181 168 152 140 140 143 126 110 114 123 125 121 118 119 124 131 137 140 139 137 135 135 133 131 129 127 127 128 130 131 133 135 136 137 138 135 130 127 125 121 122 127 50 355 351 1 16 30 29 21 11 5 3 1 359 358 360 0 359 358 354 350 346 342 340 341 345 352 357 356 352 349 346 342 338 336 334 332 331 332 331
158 152 158 157 154 155 155 151 151 153 139 125 127 132 130 126 123 126 129 132 135 139 141 139 137 137 138 136 134 132 130 129 129 130 132 135 138 138 139 138 138 141 146 147 169 242 271 279 299 321 334 337 343 348 350 350 354 356 358 2 5 6 5 2 358 351 345 340 339 340 344 349 352 350 349 349 348 343 338 335 334 333 332 332 331
116 136 159 160 155 155 161 163 159 155 149 142 140 140 140 138 136 136 138 140 139 140 141 142 143 143 142 140 138 136 133 132 131 132 135 136 135 134 135 133 133 136 137 134 147 249 285 291 296 302 302 302 310 315 323 339 350 356 3 8 11 11 9 6 3 359 355 351 348 347 345 341 342 346 350 351 349 344 339 335 333 332 333 335 338
114 118 144 158 159 156 158 159 156 151 148 146 142 140 141 143 144 144 147 149 147 145 146 148 148 147 145 143 142 141 139 137 137 138 139 139 136 135 136 135 136 143 155 161 181 234 265 275 280 282 283 288 300 309 322 340 353 0 7 12 15 15 11 7 4 4 4 2 359 358 351 338 337 343 348 349 349 345 340 335 333 336 339 341 341
135 124 129 139 142 143 150 154 151 146 147 148 145 142 143 144 143 145 149 151 150 149 150 151 151 150 151 151 149 147 146 146 147 149 151 153 157 159 158 159 162 170 182 192 203 226 249 259 259 261 269 286 302 315 333 347 355 2 9 16 18 14 9 5 4 4 3 0 358 357 351 341 336 339 347 353 352 345 338 336 339 343 346 345 342
142 138 142 143 134 131 143 151 148 145 148 150 149 149 149 146 144 145 149 151 152 152 153 154 156 156 157 155 152 151 153 156 159 162 164 167 170 170 171 175 181 187 190 197 208 222 233 238 236 245 277 307 315 325 343 353 356 0 10 16 15 9 3 1 0 1 360 354 347 344 342 341 341 344 352 357 354 344 340 343 347 347 348 348 346